[Iaude] MPEC V11: 2023 VC [a=2.44,e=0.61,i=0.8,H=25.4]
    mpec at marsden.cfa.harvard.edu 
    mpec at marsden.cfa.harvard.edu
       
    Fri Nov  3 09:44:59 EDT 2023
    
    
  
M.P.E.C. 2023-V11                              Issued 2023 November 3, 13:42 UT
     The Minor Planet Electronic Circulars contain information on unusual
         minor planets, routine data on comets and natural satellites,
         and occasional editorial announcements.  They are published
    on behalf of Division F of the International Astronomical Union by the
          Minor Planet Center, Smithsonian Astrophysical Observatory,
                          Cambridge, MA 02138, U.S.A.
			  
             Prepared using the Tamkin Foundation Computer Network
                              MPC at CFA.HARVARD.EDU
            URL https://www.minorplanetcenter.net/    ISSN 1523-6714
                                    2023 VC                                     
Observations:
     K23V00C 1C2023 11 01.33754 01 32 52.70 -00 51 18.4          19.9 GVEV011703
     K23V00C 1C2023 11 01.34289 01 32 55.52 -00 51 17.5          19.7 GVEV011703
     K23V00C 1C2023 11 01.35626 01 33 02.57 -00 51 12.6          19.0 GVEV011703
     K23V00C*1C2023 11 02.28391001 43 15.164-00 44 05.71         20.61GVEV011703
     K23V00C 1C2023 11 02.29462901 43 22.390-00 44 00.28         19.05GVEV011703
     K23V00C 1C2023 11 02.29998801 43 26.008-00 43 56.32         19.06GVEV011703
     K23V00C KC2023 11 02.32967301 43 45.829-00 43 41.52         18.90GVEV011I52
     K23V00C  C2023 11 02.33047601 43 39.99 -00 39 54.8                WEV011X09
     K23V00C KC2023 11 02.33067701 43 46.506-00 43 40.87         18.95GVEV011I52
     K23V00C KC2023 11 02.33168601 43 47.183-00 43 40.37         18.90GVEV011I52
     K23V00C KC2023 11 02.33269701 43 47.860-00 43 39.65         19.10GVEV011I52
     K23V00C  C2023 11 02.33747401 43 44.93 -00 39 51.0                WEV011X09
     K23V00C KC2023 11 02.91913 01 51 42.60 -00 38 29.2          19.4 VqEV011L04
     K23V00C KC2023 11 02.92909 01 51 50.56 -00 38 23.0          19.5 VqEV011L04
     K23V00C KC2023 11 03.14478801 55 11.15 -00 35 33.1          18.7 GVEV011H21
     K23V00C KC2023 11 03.14758401 55 13.53 -00 35 31.0          18.7 GVEV011H21
     K23V00C KC2023 11 03.15038201 55 15.92 -00 35 29.1          18.7 GVEV011H21
     K23V00C KC2023 11 03.15317901 55 18.31 -00 35 27.0          18.7 GVEV011H21
     K23V00C KC2023 11 03.16225601 55 30.05 -00 35 05.7          18.6 GXEV011858
     K23V00C KC2023 11 03.16697401 55 34.12 -00 35 02.3          18.8 GXEV011858
     K23V00C KC2023 11 03.17150001 55 38.02 -00 34 59.1          18.7 GXEV011858
     K23V00C mC2023 11 03.22136401 56 22.160-00 34 13.60         19.28GVEV011I52
     K23V00C mC2023 11 03.24622701 56 43.660-00 33 55.20         18.91GVEV011I52
     K23V00C mC2023 11 03.28975501 57 21.590-00 33 22.50         18.62GVEV011I52
     K23V00C mC2023 11 03.29210301 57 23.640-00 33 20.80         18.70GVEV011I52
Observer details:
703 Catalina Sky Survey.  Observer J. K. Hogan.  Measurers B. Gray, D. Rankin,
    F. C. Shelly, E. C. Beshore, D. Fay, J. B. Fazekas, D. C. Fuls, A. R.
    Gibbs, A. D. Grauer, H. Groeller, J. K. Hogan, R. A. Kowalski, S. M.
    Larson, G. J. Leonard, R. L. Seaman, K. W. Wierzchos.  0.68-m Schmidt +
    10K CCD.
858 Tebbutt Observatory, Edgewood.  Observer F. B. Zoltowski.  0.51-m f/8.1
    Schmidt-Cassegrain + CCD.
H21 Astronomical Research Observatory, Westfield.  Observer R. Holmes.
    Measurers T. Linder, R. Holmes, L. Horn.  0.76-m f/3.0 astrograph + CCD.
I52 Steward Observatory, Mt. Lemmon Station.  Observers R. A. Kowalski, D.
    Rankin.  Measurers E. C. Beshore, D. Fay, J. B. Fazekas, D. C. Fuls, A. R.
    Gibbs, A. D. Grauer, H. Groeller, J. K. Hogan, R. A. Kowalski, S. M.
    Larson, G. J. Leonard, D. Rankin, R. L. Seaman, F. C. Shelly, K. W.
    Wierzchos.  1.0-m prime focus + CCD.
L04 ROASTERR-1 Observatory, Cluj-Napoca.  Observer L. Hudin.  0.3-m f/5
    reflector + CCD.
X09 Deep Random Survey, Rio Hurtado.  Observers A. Schnabel, D. Ruhela.
    Measurer S. Deen.  0.43-m reflector + CMOS.
Orbital elements:
2023 VC                                                  Earth MOID = 0.0048 AU
Epoch 2023 Sept. 13.0 TT = JDT 2460200.5                Veres                   
M 339.61713              (2000.0)            P               Q                  
n   0.25896725     Peri.    3.59001     +0.26336251     -0.96460951             
a   2.4376582      Node    71.14065     +0.88474995     +0.23614884             
e   0.6076087      Incl.    0.78637     +0.38452271     +0.11731246             
P   3.81           H   25.40          G   0.15           U   8                  
Residuals in seconds of arc
231101 703  0.4-  0.7+    231102 I52  0.1+  0.0     231103 858  0.1+  0.0
231101 703  0.0   0.5-    231102 I52  0.1+  0.2+    231103 858  0.1+  0.0
231101 703  0.3+  0.9-    231102 X09  1.5-  0.7+    231103 858  0.1+  0.0
231102 703 (3.1-  0.5+)   231102 L04  0.8-  1.2+    231103 I52  0.1-  0.1-
231102 703  0.9-  0.1+    231102 L04  1.4-  0.8+    231103 I52  0.1-  0.1-
231102 703  0.1+  1.2+    231103 H21  0.1+  0.1-    231103 I52  0.1+  0.1-
231102 I52  0.1+  0.1-    231103 H21  0.0   0.0     231103 I52  0.0   0.2-
231102 X09  1.2-  1.0+    231103 H21  0.0   0.1-
231102 I52  0.2+  0.0     231103 H21  0.0   0.0
Ephemeris:
2023 VC                  a,e,i = 2.44, 0.61, 1                   q = 0.9565
Date    TT    R. A. (2000) Decl.     Delta      r    Elong.  Phase     V
2023 10 04    00 37 53.3 -00 02 48   0.2217  1.2218   175.9     3.3    22.9
...
2023 10 19    00 45 31.2 -00 51 49   0.1223  1.1145   164.2    14.1    21.9
...
2023 10 27    01 01 38.4 -01 04 13   0.07539 1.0650   159.6    19.0    20.9
...
2023 11 02    01 39 55.1 -00 44 39   0.04245 1.0327   160.9    18.3    19.6
2023 11 03    01 52 54.5 -00 34 44   0.03728 1.0277   162.1    17.3    19.2
2023 11 04    02 10 01.2 -00 20 45   0.03228 1.0229   163.4    16.1    18.9
...
2023 11 10    07 26 53.5 +03 22 11   0.01700 0.9972   112.8    66.3    18.9
...
2023 11 18    11 00 19.0 +02 53 19   0.05232 0.9720    69.9   107.2    22.9
...
2023 12 03    11 49 37.8 +01 57 04   0.1317  0.9565    73.4    99.1    24.5
M. P. C. Staff               (C) Copyright 2023 MPC           M.P.E.C. 2023-V11
    
    
More information about the Iaude
mailing list